www.pogodaiklimat.ru

Погода и климат >> Архив погоды >> Япония >> Сиономисаки


ПОГОДА в Сиономисаки

  • Прогноз погоды в Сиономисаки
  • Монитор погоды в Сиономисаки

АРХИВ ПОГОДЫ в Сиономисаки

Время (UTC), дата Ветер
(напр.,м/с)
 
Видим.   Явления Облачность Т
(С)
Тd
(С)
f
(%)
Тe
(С)
Тes
(С)
Комфортность P
(гПа)
Po
(гПа)
Тmin
(С)
Tmax
(С)
R
(мм)
R24
(мм)
S
(см)
22 15.09 СЗ 3 20 км н/о +26.3 +20.2 69 +32 +32 очень
душно
1001.5 993.7
23 15.09 З 2 20 км н/о +27.6 +20.9 67 +35 +35 очень
душно
1001.7 993.9
00 16.09 С 2 20 км н/о +28.6 +21.1 64 +36 +36 очень
душно
1001.7 994.0 +24.2
01 16.09 ЮЗ 2 20 км н/о +29.1 +23.3 71 +39 +39 очень
душно
1001.3 993.6
03 16.09 З 4 16 км н/о +28.8 +24.4 77 +40 +40 очень
душно
1000.3 992.6
04 16.09 З 6 20 км н/о +30.0 +23.9 70 +41 +41 опасность
перегрева
999.4 991.7
05 16.09 З 7 20 км н/о +30.4 +24.6 71 +43 +43 опасность
перегрева
999.1 991.4
06 16.09 С 2 20 км н/о +32.2 +23.7 61 +44 +44 опасность
перегрева
999.2 991.6
07 16.09 В 5 15 км н/о +29.8 +24.9 75 +43 +43 опасность
перегрева
999.7 992.0
08 16.09 В 4 20 км н/о +28.5 +23.9 76 +39 +39 очень
душно
1000.4 992.7
09 16.09 В 3 15 км н/о +27.2 +24.7 86 +39 +39 очень
душно
1001.1 993.3
10 16.09 В 2 11 км н/о +26.6 +24.6 89 +38 +38 очень
душно
1002.0 994.2
11 16.09 СВ 2 12 км н/о +26.3 +24.3 89 +37 +37 очень
душно
1002.5 994.7
12 16.09 СВ 3 20 км н/о +26.4 +20.0 68 +32 +32 очень
душно
1003.0 995.2 +32.6
13 16.09 С 3 20 км н/о +26.0 +20.1 70 +32 +32 очень
душно
1003.4 995.6
14 16.09 С 2 20 км н/о +25.4 +19.8 71 +31 +31 очень
душно
1003.2 995.4
15 16.09 С 3 20 км н/о +25.2 +19.8 72 +31 +31 очень
душно
1003.5 995.7
16 16.09 С 2 19 км н/о +25.0 +20.7 77 +31 +31 очень
душно
1004.0 996.2
17 16.09 С 3 20 км н/о +25.0 +19.6 72 +30 +30 душно 1004.2 996.4
18 16.09 СВ 3 20 км н/о +24.6 +20.1 76 +30 +30 очень
душно
1004.9 997.0
19 16.09 СВ 3 20 км н/о +24.4 +19.5 74 +30 +30 очень
душно
1005.4 997.5
20 16.09 С 3 20 км н/о +24.1 +19.8 77 +29 +29 душно 1005.8 997.9
21 16.09 С 3 20 км н/о +24.2 +19.3 74 +29 +29 душно 1006.0 998.1
22 16.09 СВ 3 20 км н/о +25.5 +19.2 68 +31 +31 очень
душно
1006.6 998.8
23 16.09 СВ 1 20 км н/о +27.1 +20.0 65 +33 +33 очень
душно
1007.5 999.7
00 17.09 В 4 20 км н/о +28.0 +20.1 62 +34 +34 очень
душно
1008.3 1000.5 +23.9
01 17.09 СВ 5 20 км н/о +28.9 +20.9 62 +36 +36 очень
душно
1008.2 1000.4
02 17.09 СВ 5 20 км н/о +29.3 +21.5 63 +37 +37 очень
душно
1007.8 1000.0
03 17.09 СВ 5 20 км н/о +29.8 +22.3 64 +39 +39 очень
душно
1007.7 1000.0
04 17.09 В 5 20 км н/о +28.7 +22.2 68 +37 +37 очень
душно
1007.6 999.8
05 17.09 СВ 4 20 км н/о +28.7 +22.2 68 +37 +37 очень
душно
1007.6 999.8
06 17.09 СВ 5 20 км н/о +27.7 +22.2 72 +36 +36 очень
душно
1007.6 999.8
07 17.09 СВ 4 20 км н/о +27.2 +22.8 77 +36 +36 очень
душно
1008.1 1000.3
08 17.09 СВ 4 20 км н/о +26.9 +22.7 78 +36 +36 очень
душно
1008.7 1000.9
09 17.09 СВ 4 20 км н/о +26.6 +22.9 80 +35 +35 очень
душно
1009.0 1001.2
11 17.09 В 4 20 км н/о +26.2 +21.6 76 +34 +34 очень
душно
1009.6 1001.7
12 17.09 В 6 20 км н/о +26.2 +21.6 76 +34 +34 очень
душно
1009.6 1001.7 +30.1
13 17.09 СВ 4 20 км н/о +25.8 +22.9 84 +34 +34 очень
душно
1009.8 1001.9
14 17.09 СВ 4 19 км н/о +25.6 +22.9 85 +34 +34 очень
душно
1009.6 1001.7
15 17.09 СВ 5 20 км н/о +25.5 +23.0 86 +34 +34 очень
душно
1009.4 1001.5
16 17.09 СВ 5 20 км н/о +25.6 +22.7 84 +34 +34 очень
душно
1009.2 1001.3
17 17.09 СВ 5 20 км н/о +25.8 +22.5 82 +34 +34 очень
душно
1008.9 1001.0
18 17.09 СВ 5 19 км слаб. дождь н/о +25.7 +22.6 83 +34 +34 очень
душно
1008.6 1000.7 0.0
20 17.09 СВ 5 16 км слаб. дождь н/о +25.4 +22.9 86 +34 +34 очень
душно
1008.5 1000.6
21 17.09 СВ 5 12 км слаб. дождь н/о +24.2 +22.6 91 +32 +32 очень
душно
1008.9 1001.0
23 17.09 СВ 5 7000 м слаб. дождь н/о +22.5 +21.5 94 +30 +30 очень
душно
1009.8 1001.8
00 18.09 СВ 5 5000 м слаб. дождь н/о +22.4 +21.7 96 +30 +30 очень
душно
1010.5 1002.5 +22.4 4
01 18.09 СВ 6 5000 м слаб. дождь н/о +22.1 +21.6 97 +29 +29 очень
душно
1010.6 1002.6
02 18.09 СВ 4 13 км слаб. дождь н/о +22.5 +21.5 94 +30 +30 очень
душно
1010.4 1002.4
03 18.09 СВ 4 11 км слаб. дождь н/о +23.1 +21.9 93 +31 +31 очень
душно
1010.0 1002.1
04 18.09 СВ 5 19 км в посл. час дождь н/о +23.0 +22.2 95 +31 +31 очень
душно
1008.9 1001.0
05 18.09 СВ 5 12 км слаб. дождь н/о +23.4 +22.4 94 +32 +32 очень
душно
1008.7 1000.8
06 18.09 СВ 5 15 км слаб. дождь н/о +23.6 +22.6 94 +31 +31 очень
душно
1008.5 1000.6 4
07 18.09 СВ 5 20 км в посл. час дождь н/о 1000.4
09 18.09 СВ 4 20 км {дождь, осадки} н/о +23.7 +22.5 93 +31 +31 очень
душно
1009.3 1001.4
10 18.09 СВ 2 17 км н/о +23.4 +22.6 95 +32 +32 очень
душно
1009.7 1001.8
11 18.09 СВ 2 20 км н/о +23.1 +22.4 96 +32 +32 очень
душно
1010.1 1002.2
12 18.09 СВ 2 20 км {дождь, осадки} н/о +23.0 +22.3 96 +31 +31 очень
душно
1010.7 1002.7 +24.0 4
13 18.09 СВ 3 18 км н/о +22.8 +22.3 97 +31 +31 очень
душно
1010.6 1002.6
14 18.09 СВ 2 20 км н/о +22.1 +20.9 93 +29 +29 очень
душно
1010.3 1002.3
15 18.09 С 3 20 км н/о +22.0 +18.4 80 +27 +27 душно 1010.6 1002.6
16 18.09 С 3 20 км н/о +21.2 +18.6 85 +26 +26 душно 1010.1 1002.1
17 18.09 С 3 20 км н/о +21.1 +16.9 77 +25 +25 комфорт 1010.0 1002.0
18 18.09 С 4 20 км н/о +21.2 +15.5 70 +24 +24 комфорт 1010.7 1002.7
19 18.09 С 4 20 км н/о +21.1 +14.3 65 +24 +24 комфорт 1010.8 1002.8
20 18.09 СВ 3 20 км н/о +20.9 +14.3 66 +24 +24 комфорт 1011.0 1003.0
21 18.09 С 4 20 км н/о +21.0 +13.7 63 +24 +24 комфорт 1012.1 1004.1
22 18.09 СВ 3 20 км н/о +21.4 +15.0 67 +25 +25 комфорт 1012.4 1004.4
23 18.09 СВ 2 20 км н/о +23.2 +15.5 62 +27 +27 душно 1012.3 1004.3
00 19.09 С 2 19 км н/о +24.7 +15.6 57 +28 +28 душно 1012.2 1004.3 +20.7
01 19.09 СВ 3 н/о н/о +26.0 +16.0 54 +29 +29 душно 1012.6 1004.7
02 19.09 В 5 н/о н/о +26.2 +15.9 53 +29 +29 жарко 1012.9 1005.0
03 19.09 СВ 5 20 км н/о +27.1 +17.9 57 +32 +32 очень
душно
1012.9 1005.0
04 19.09 В 7 20 км н/о +26.9 +18.0 58 +31 +31 душно 1012.7 1004.8
05 19.09 В 7 20 км н/о +26.6 +18.2 60 +31 +31 душно 1012.5 1004.6
06 19.09 СВ 6 20 км н/о +26.2 +18.6 63 +31 +31 очень
душно
1012.3 1004.4
07 19.09 В 5 20 км н/о +25.8 +18.5 64 +31 +31 очень
душно
1012.2 1004.3
08 19.09 СВ 5 20 км н/о +25.0 +18.7 68 +30 +30 душно 1012.1 1004.2
09 19.09 В 4 20 км н/о +24.0 +18.9 73 +29 +29 душно 1012.3 1004.4
10 19.09 СВ 2 20 км н/о +23.4 +19.1 77 +30 +30 очень
душно
1013.2 1005.2
11 19.09 СВ 3 20 км н/о +23.1 +18.4 75 +29 +29 очень
душно
1013.8 1005.8
12 19.09 С 3 20 км н/о +22.7 +19.3 81 +29 +29 очень
душно
1014.2 1006.2 +27.5
13 19.09 СВ 3 20 км н/о +22.7 +19.1 80 +29 +29 очень
душно
1014.1 1006.1
14 19.09 С 2 20 км н/о +22.1 +18.9 82 +27 +27 душно 1014.0 1006.0
15 19.09 С 3 20 км н/о +22.2 +18.4 79 +27 +27 душно 1013.8 1005.8
16 19.09 СВ 3 20 км н/о +22.3 +18.1 77 +27 +27 душно 1013.2 1005.2
18 19.09 СВ 3 20 км н/о +22.2 +16.5 70 +26 +26 душно 1012.9 1004.9
19 19.09 СВ 3 20 км н/о +22.0 +16.3 70 +26 +26 душно 1013.5 1005.5
20 19.09 СВ 3 20 км н/о +22.0 +17.0 73 +26 +26 душно 1013.5 1005.5
21 19.09 СВ 4 20 км н/о +22.4 +16.9 71 +27 +27 душно 1014.0 1006.0
22 19.09 СВ 4 20 км н/о +23.2 +18.1 73 +29 +29 душно 1013.9 1005.9
23 19.09 СВ 5 20 км н/о +23.8 +18.5 72 +28 +28 душно 1014.2 1006.2
00 20.09 СВ 6 20 км н/о +24.6 +18.5 69 +29 +29 душно 1014.2 1006.3 +21.7
01 20.09 СВ 6 20 км н/о +24.6 +19.2 72 +30 +30 очень
душно
1014.6 1006.7
02 20.09 СВ 7 20 км н/о +24.6 +19.5 73 +30 +30 очень
душно
1014.7 1006.8
03 20.09 СВ 6 17 км слаб. дождь н/о +23.6 +20.2 81 +29 +29 душно 1014.5 1006.5
04 20.09 СВ 7 9000 м слаб. дождь н/о +23.0 +20.7 87 +30 +30 очень
душно
1014.4 1006.4
05 20.09 СВ 6 20 км в посл. час дождь н/о +23.7 +20.3 81 +29 +29 душно 1014.4 1006.4
06 20.09 СВ 7 20 км слаб. дождь н/о +23.3 +20.1 82 +30 +30 очень
душно
1014.2 1006.2 0.0
07 20.09 СВ 5 17 км слаб. дождь н/о +22.4 +20.9 91 +29 +29 очень
душно
1014.7 1006.7
08 20.09 СВ 3 17 км слаб. дождь н/о +22.4 +20.5 89 +29 +29 очень
душно
1016.1 1008.1
09 20.09 СВ 4 15 км в посл. час дождь н/о +22.1 +20.7 92 +28 +28 душно 1016.0 1008.0
10 20.09 СВ 5 3900 м дождь н/о +21.3 +20.8 97 +27 +27 душно 1016.9 1008.8
11 20.09 СВ 4 6000 м дождь н/о +19.1 +18.8 98 +21 +21 комфорт 1017.8 1009.7
12 20.09 СВ 4 12 км слаб. дождь н/о +19.3 +19.0 98 +21 +21 комфорт 1017.5 1009.4 +25.1 6
13 20.09 СВ 5 20 км в посл. час дождь н/о +19.4 +16.6 84 +21 +21 комфорт 1018.0 1009.9
14 20.09 СВ 4 20 км в посл. час дождь н/о +19.9 +16.0 78 +22 +22 комфорт 1017.7 1009.6
15 20.09 СВ 3 20 км {дождь} н/о +20.7 +16.7 78 +24 +24 комфорт 1018.6 1010.5
16 20.09 СВ 4 20 км н/о +21.3 +17.7 80 +25 +25 комфорт 1017.5 1009.4
17 20.09 СВ 4 20 км н/о +21.5 +17.5 78 +26 +26 душно 1017.2 1009.1
18 20.09 СВ 5 20 км {дождь} н/о +21.9 +18.1 79 +27 +27 душно 1016.5 1008.5 0.0
19 20.09 СВ 5 20 км н/о +22.2 +18.8 81 +28 +28 душно 1016.5 1008.5
20 20.09 СВ 5 20 км н/о +22.2 +19.6 85 +28 +28 душно 1016.7 1008.7
21 20.09 СВ 6 20 км н/о +22.3 +20.2 88 +29 +29 очень
душно
1016.9 1008.9
22 20.09 СВ 5 18 км н/о +23.2 +20.4 84 +30 +30 очень
душно
1017.4 1009.4
23 20.09 СВ 7 20 км н/о +24.4 +20.5 79 +30 +30 очень
душно
1017.7 1009.7
00 21.09 СВ 5 20 км н/о +24.5 +20.8 80 +31 +31 очень
душно
1018.4 1010.4 +19.1 0.0
01 21.09 СВ 6 20 км н/о +24.9 +20.8 78 +31 +31 очень
душно
1018.6 1010.6
02 21.09 СВ 6 20 км н/о +25.4 +20.7 75 +32 +32 очень
душно
1018.2 1010.3
03 21.09 СВ 6 20 км н/о +25.1 +20.4 75 +31 +31 очень
душно
1018.1 1010.1
04 21.09 СВ 7 20 км н/о +24.2 +20.3 79 +30 +30 очень
душно
1017.2 1009.2
05 21.09 СВ 7 20 км н/о +25.1 +20.8 77 +31 +31 очень
душно
1016.4 1008.5
06 21.09 СВ 6 17 км н/о +24.1 +20.2 79 +30 +30 очень
душно
1016.2 1008.2
07 21.09 СВ 6 17 км н/о +23.9 +21.0 84 +30 +30 очень
душно
1016.3 1008.3
08 21.09 СВ 6 16 км слаб. дождь н/о +24.0 +22.1 89 +31 +31 очень
душно
1016.2 1008.2
09 21.09 В 7 16 км в посл. час дождь н/о +24.6 +22.1 86 +32 +32 очень
душно
1016.9 1008.9
10 21.09 В 9 13 км слаб. дождь н/о +24.1 +22.2 89 +31 +31 очень
душно
1017.1 1009.1
11 21.09 В 8 14 км в посл. час дождь н/о +24.6 +22.1 86 +32 +32 очень
душно
1018.0 1010.0
12 21.09 В 8 13 км слаб. дождь н/о +24.1 +22.4 90 +31 +31 очень
душно
1018.1 1010.1 +26.3 0.0
13 21.09 В 7 20 км в посл. час дождь н/о +24.4 +21.5 84 +31 +31 очень
душно
1017.8 1009.8
14 21.09 В 6 14 км слаб. дождь н/о +23.4 +22.6 95 +32 +32 очень
душно
1017.1 1009.1
15 21.09 В 7 14 км в посл. час дождь н/о +24.1 +22.7 92 +32 +32 очень
душно
1016.4 1008.4
16 21.09 В 7 4900 м слаб. дождь н/о +23.1 +22.8 98 +32 +32 очень
душно
1016.3 1008.3
17 21.09 В 6 13 км в посл. час дождь н/о +23.6 +22.4 93 +31 +31 очень
душно
1015.7 1007.7
18 21.09 В 6 7000 м слаб. дождь н/о +23.4 +22.9 97 +33 +33 очень
душно
1015.5 1007.5 1
19 21.09 В 6 8000 м слаб. дождь н/о +23.5 +23.0 97 +31 +31 очень
душно
1015.3 1007.3
20 21.09 В 7 9000 м слаб. дождь н/о +24.0 +23.2 95 +32 +32 очень
душно
1015.4 1007.4
21 21.09 В 7 11 км слаб. дождь н/о +24.8 +22.9 89 +33 +33 очень
душно
1015.0 1007.1
22 21.09 В 8 14 км в посл. час дождь н/о +25.1 +23.0 88 +33 +33 очень
душно
1014.8 1006.9
23 21.09 В 7 14 км н/о +25.1 +22.2 84 +33 +33 очень
душно
1014.8 1006.9
00 22.09 В 8 10 км слаб. дождь н/о +24.4 +22.5 89 +32 +32 очень
душно
1015.1 1007.2 +22.9 3
01 22.09 В 7 10 км слаб. дождь н/о +25.3 +22.6 85 +33 +33 очень
душно
1014.6 1006.7
02 22.09 В 6 10 км в посл. час дождь н/о +25.5 +23.7 90 +35 +35 очень
душно
1013.8 1005.9
03 22.09 В 8 5000 м слаб. дождь н/о +24.8 +24.3 97 +34 +34 очень
душно
1012.9 1005.0
04 22.09 В 7 3800 м дождь н/о +24.6 +24.6 100 +34 +34 очень
душно
1011.9 1004.0
05 22.09 В 8 7000 м слаб. дождь н/о +25.4 +25.2 99 +37 +37 очень
душно
1011.3 1003.4
06 22.09 В 6 8000 м в посл. час дождь н/о +26.1 +25.4 96 +38 +38 очень
душно
1011.0 1003.1 7
07 22.09 ЮВ 7 12 км н/о +26.3 +25.6 96 +39 +39 очень
душно
1010.7 1002.8
08 22.09 ЮВ 6 10 км н/о +26.6 +25.7 95 +39 +39 очень
душно
1010.4 1002.6
09 22.09 ЮВ 5 8000 м дымка н/о +26.2 +25.9 98 +39 +39 очень
душно
1011.0 1003.1
10 22.09 ЮВ 5 8000 м дымка н/о +26.1 +25.9 99 +39 +39 очень
душно
1011.2 1003.3
11 22.09 ЮВ 4 7000 м дымка н/о +26.2 +26.0 99 +39 +39 очень
душно
1011.3 1003.4
12 22.09 ЮВ 4 5000 м дымка н/о +26.3 +26.1 99 +39 +39 очень
душно
1010.9 1003.0 +26.7 7
13 22.09 ЮВ 6 7000 м дымка н/о +26.5 +26.3 99 +40 +40 очень
душно
1010.2 1002.4
14 22.09 ЮВ 6 7000 м дымка н/о +26.6 +26.3 98 +40 +40 очень
душно
1009.9 1002.1
15 22.09 ЮВ 6 9000 м дымка н/о +26.6 +25.9 96 +40 +40 очень
душно
1009.2 1001.4
16 22.09 Ю 6 8000 м дымка н/о +26.6 +26.1 97 +40 +40 очень
душно
1008.7 1000.9
17 22.09 Ю 6 9000 м в посл. час дождь н/о +26.7 +25.8 95 +40 +40 очень
душно
1008.2 1000.4
18 22.09 Ю 6 7000 м дымка {дождь} н/о +26.9 +26.0 95 +40 +40 очень
душно
1007.4 999.6 0.0
19 22.09 Ю 7 6000 м в посл. час дождь н/о +26.8 +26.1 96 +40 +40 очень
душно
1007.1 999.3
20 22.09 Ю 7 6000 м слаб. дождь н/о +26.8 +25.4 92 +39 +39 очень
душно
1007.6 999.8
21 22.09 Ю 7 6000 м в посл. час дождь н/о +25.9 +25.2 96 +37 +37 очень
душно
1008.0 1000.2
22 22.09 Ю 5 4900 м дымка н/о +26.2 +25.9 98 +39 +39 очень
душно
1008.5 1000.7

 

Местоположение метеостанции Сиономисаки (Япония): широта 33.45 долгота 135.76 высота над уровнем моря 75 м.

В архиве по умолчанию представлена погода в Сиономисаки за последнюю неделю. Архивные данные за месяц целиком и за предыдущие месяцы, начиная с января 2011 года, Вы можете получить, выбрав интересующий диапазон дат из раскрывающегося списка и нажав кнопку "Ввод!".


*Определитесь, кто Вы:
робот инопланетянин человек

Внимание! Время в таблицах - всемирное. Для получения местного времени необходимо прибавить поправку, которая равна 9 ч.

Смотрите также архив погоды в соседних городах и на ближайших метеорологических станциях:

Погода в Овасе (Япония) (80 км)
Погода в Вакаяме (Япония) (103 км)
Погода в Сумото (Япония) (126 км)
Погода в Токусиме (Япония) (131 км)
Погода в Осаке (Япония) (139 км)
Погода в Наре (Япония) (139 км)
Погода в Кобе (Япония) (148 км)
Погода в Муротомисаки (Япония) (148 км)
Погода в Уэно (Япония) (151 км)
Погода в Цу (Япония) (158 км)

Пояснения к столбцам:

Ветер - указаны скорость ветра в м/с - средняя за 10 мин, порывы в срок и между сроками (в фигурных скобках) и направление, откуда дует ветер: С - северный, СВ - северо-восточный, В - восточный, ЮВ - юго-восточный, Ю - южный, ЮЗ - юго-западный, З - западный, СЗ - северо-западный.
Видимость - горизонтальная дальность видимости в метрах или километрах. При видимости от 1 до 10 км при отсутствии осадков обычно наблюдается дымка, при ухудшении видимости до 1 км и менее - туман. В сухую погоду видимость может ухудшаться дымом, пылью или мглою.
Явления - указаны атмосферные явления, наблюдавшиеся в срок или в последний час перед сроком; фигурными скобками обозначены явления, наблюдавшиеся между сроками (за 1-3 часа до срока); квадратными скобками обозначены град или гололедные отложения с указанием их диаметра в мм.
Облачность - указаны через наклонную черту общая и нижняя облачность в баллах и высота нижней границы облаков в метрах; квадратными скобками обозначены формы облаков: Ci - перистые, Cs - перисто-слоистые, Cc - перисто-кучевые, Ac - высококучевые, As - высокослоистые, Sc - слоисто-кучевые, Ns - слоисто-дождевые, Cu - кучевые, Cb - кучево-дождевые. Подробнее классификацию облаков см. в Атласе облаков (PDF).
T - Температура воздуха - температура, измеренная на высоте 2 м над землей.
Td - Температура точки росы - температура, при понижении до которой содержащийся в воздухе водяной пар достигнет насыщения.
f - Относительная влажность воздуха - влажноcть воздуха, измеренная на высоте 2 м над землей.
Te - Эффективная температура - температура, которую ощущает одетый по сезону человек в тени. Характеристика душности погоды. При расчете учитывается влияние влажности воздуха и скорости ветра на теплоощущения человека.
Tes - Эффективная температура на солнце - температура, которую ощущает человек, с поправкой на солнечный нагрев. Характеристика знойности погоды. Зависит от высоты солнца над горизонтом, облачности и скорости ветра. Ночью, в пасмурную погоду, а также при ветре 12 м/с и более поправка равна нулю.
P - Атмосферное давление - приведенное к уровню моря атмосферное давление.
Po - Атмосферное давление - измеренное на уровне метеостанции атмосферное давление.
Tmin - Минимальная температура - минимум температуры воздуха на высоте 2 м над землей.
Tmax - Максимальная температура - максимум температуры воздуха на высоте 2 м над землей.
R - Количество осадков - Количество выпавших осадков за период времени, мм. При наведении курсора мыши на число - период времени, за который выпало указанное количество осадков.
R24 - Количество осадков - Количество выпавших осадков за 24 часа, мм.
S - Снежный покров - Высота снежного покрова, см. При наведении курсора мыши на число - состояние снежного покрова и степень покрытия местности в баллах.